| time (UTC) | temp F | wind direction | speed MPH | gust MPH | rain 1hr in | rain 24hr in | rain mn in | humidity % | barometer mb |
| 20260505011046 | 40 | 238 | 0.0 | 4.0 | 0.00 | 0.10 | 0.00 | 93 | 1012.1 |
| 20260505010540 | 40 | 271 | 0.0 | 2.0 | 0.00 | 0.10 | 0.00 | 93 | 1012.1 |
| 20260505010040 | 40 | 238 | 0.0 | 3.0 | 0.00 | 0.10 | 0.00 | 93 | 1012.2 |
| 20260505005539 | 40 | 226 | 0.0 | 6.0 | 0.00 | 0.11 | 0.00 | 93 | 1012.2 |
| 20260505005039 | 40 | 300 | 1.0 | 6.0 | 0.00 | 0.11 | 0.00 | 93 | 1012.2 |
| 20260505004540 | 41 | 228 | 0.0 | 5.0 | 0.00 | 0.11 | 0.00 | 93 | 1012.3 |
| 20260505004037 | 40 | 259 | 2.0 | 6.0 | 0.00 | 0.11 | 0.00 | 93 | 1012.2 |
| 20260505003540 | 40 | 263 | 0.0 | 5.0 | 0.00 | 0.11 | 0.00 | 93 | 1012.3 |
| 20260505003036 | 40 | 269 | 0.0 | 4.0 | 0.00 | 0.11 | 0.00 | 93 | 1012.4 |
| 20260505002536 | 40 | 209 | 0.0 | 1.0 | 0.00 | 0.11 | 0.00 | 92 | 1012.3 |
| 20260505002035 | 40 | 234 | 0.0 | 1.0 | 0.00 | 0.11 | 0.00 | 92 | 1012.4 |
| 20260505001535 | 40 | 234 | 0.0 | 3.0 | 0.00 | 0.11 | 0.00 | 92 | 1012.3 |
| 20260505001034 | 40 | 227 | 1.0 | 3.0 | 0.00 | 0.11 | 0.00 | 92 | 1012.3 |
| 20260505000538 | 40 | 308 | 1.0 | 3.0 | 0.00 | 0.11 | 0.00 | 92 | 1012.2 |
| 20260505000034 | 40 | 292 | 0.0 | 3.0 | 0.00 | 0.11 | 0.00 | 92 | 1012.3 |
| 20260504235533 | 40 | 281 | 0.0 | 2.0 | 0.00 | 0.13 | 0.00 | 92 | 1012.3 |
| 20260504235033 | 40 | 289 | 0.0 | 3.0 | 0.00 | 0.13 | 0.00 | 92 | 1012.3 |
| 20260504234532 | 40 | 289 | 0.0 | 3.0 | 0.00 | 0.13 | 0.00 | 92 | 1012.2 |
| 20260504234032 | 40 | 227 | 1.0 | 3.0 | 0.00 | 0.13 | 0.00 | 92 | 1012.3 |
| 20260504233535 | 40 | 240 | 0.0 | 2.0 | 0.00 | 0.13 | 0.00 | 91 | 1012.2 |
| 20260504233031 | 40 | 240 | 0.0 | 2.0 | 0.00 | 0.13 | 0.00 | 91 | 1012.3 |
| 20260504232530 | 40 | 240 | 0.0 | 2.0 | 0.00 | 0.13 | 0.00 | 91 | 1012.3 |
| 20260504232029 | 41 | 286 | 0.0 | 1.0 | 0.00 | 0.13 | 0.00 | 91 | 1012.3 |
| 20260504231528 | 41 | 286 | 0.0 | 3.0 | 0.00 | 0.13 | 0.00 | 91 | 1012.3 |
| 20260504231031 | 41 | 286 | 0.0 | 3.0 | 0.00 | 0.13 | 0.00 | 90 | 1012.3 |
| 20260504230528 | 41 | 243 | 0.0 | 2.0 | 0.00 | 0.13 | 0.00 | 90 | 1012.3 |
| 20260504230029 | 41 | 231 | 0.0 | 3.0 | 0.00 | 0.13 | 0.00 | 90 | 1012.3 |
| 20260504225527 | 41 | 286 | 0.0 | 3.0 | 0.00 | 0.15 | 0.00 | 90 | 1012.3 |
| 20260504225026 | 41 | 294 | 0.0 | 3.0 | 0.00 | 0.15 | 0.00 | 90 | 1012.3 |
| 20260504224527 | 41 | 207 | 0.0 | 2.0 | 0.00 | 0.15 | 0.00 | 89 | 1012.3 |
| 20260504224025 | 41 | 280 | 0.0 | 1.0 | 0.00 | 0.15 | 0.00 | 89 | 1012.3 |
| 20260504223524 | 41 | 280 | 0.0 | 1.0 | 0.00 | 0.15 | 0.00 | 89 | 1012.2 |
| 20260504223024 | 42 | 280 | 0.0 | 1.0 | 0.00 | 0.15 | 0.00 | 89 | 1012.2 |
| 20260504222524 | 42 | 280 | 0.0 | 3.0 | 0.00 | 0.15 | 0.00 | 89 | 1012.2 |
| 20260504222023 | 42 | 280 | 0.0 | 3.0 | 0.00 | 0.15 | 0.00 | 89 | 1012.2 |
| 20260504221524 | 42 | 246 | 0.0 | 3.0 | 0.00 | 0.15 | 0.00 | 89 | 1012.2 |
| 20260504221021 | 42 | 246 | 1.0 | 3.0 | 0.00 | 0.15 | 0.00 | 88 | 1012.3 |
| 20260504220520 | 42 | 274 | 0.0 | 4.0 | 0.00 | 0.15 | 0.00 | 88 | 1012.3 |
| 20260504220023 | 42 | 274 | 0.0 | 4.0 | 0.00 | 0.15 | 0.00 | 88 | 1012.4 |
| 20260504215519 | 43 | 297 | 0.0 | 3.0 | 0.00 | 0.21 | 0.15 | 88 | 1012.4 |
| 20260504215019 | 43 | 282 | 0.0 | 3.0 | 0.00 | 0.21 | 0.15 | 88 | 1012.4 |
| 20260504214518 | 43 | 267 | 0.0 | 3.0 | 0.00 | 0.21 | 0.15 | 88 | 1012.5 |
| 20260504214019 | 43 | 277 | 0.0 | 3.0 | 0.00 | 0.21 | 0.15 | 88 | 1012.4 |
| 20260504213517 | 43 | 278 | 0.0 | 3.0 | 0.00 | 0.21 | 0.15 | 88 | 1012.4 |
| 20260504213017 | 43 | 280 | 1.0 | 4.0 | 0.00 | 0.21 | 0.15 | 88 | 1012.4 |
| 20260504212617 | 43 | 275 | 1.0 | 4.0 | 0.00 | 0.21 | 0.15 | 88 | 1012.4 |
| 20260504212015 | 43 | 252 | 0.0 | 3.0 | 0.00 | 0.21 | 0.15 | 87 | 1012.3 |
| 20260504211516 | 43 | 300 | 0.0 | 3.0 | 0.00 | 0.21 | 0.15 | 87 | 1012.4 |
| 20260504211014 | 43 | 253 | 0.0 | 2.0 | 0.00 | 0.21 | 0.15 | 87 | 1012.3 |
| 20260504210513 | 43 | 253 | 0.0 | 3.0 | 0.00 | 0.21 | 0.15 | 86 | 1012.2 |
| 20260504210013 | 44 | 253 | 0.0 | 3.0 | 0.00 | 0.21 | 0.15 | 86 | 1012.4 |
| 20260504205514 | 44 | 284 | 0.0 | 1.0 | 0.00 | 0.25 | 0.15 | 86 | 1012.4 |
| 20260504205011 | 44 | 284 | 0.0 | 2.0 | 0.00 | 0.25 | 0.15 | 85 | 1012.4 |
| 20260504204511 | 44 | 284 | 0.0 | 2.0 | 0.00 | 0.25 | 0.15 | 85 | 1012.4 |
| 20260504204010 | 44 | 284 | 0.0 | 2.0 | 0.00 | 0.25 | 0.15 | 85 | 1012.4 |
| 20260504203510 | 45 | 284 | 0.0 | 6.0 | 0.00 | 0.25 | 0.15 | 84 | 1012.3 |
| 20260504203012 | 45 | 290 | 0.0 | 2.0 | 0.00 | 0.25 | 0.15 | 84 | 1012.3 |
| 20260504202508 | 45 | 290 | 0.0 | 0.0 | 0.00 | 0.25 | 0.15 | 83 | 1012.3 |
| 20260504202006 | 45 | 290 | 0.0 | 0.0 | 0.00 | 0.25 | 0.15 | 82 | 1012.4 |
| 20260504201506 | 46 | 290 | 0.0 | 0.0 | 0.00 | 0.25 | 0.15 | 82 | 1012.3 |
| 20260504201005 | 46 | 241 | 0.0 | 0.0 | 0.00 | 0.25 | 0.15 | 81 | 1012.3 |
| 20260504200505 | 46 | 241 | 0.0 | 0.0 | 0.00 | 0.25 | 0.15 | 81 | 1012.3 |
| 20260504200004 | 46 | 241 | 0.0 | 0.0 | 0.00 | 0.25 | 0.15 | 81 | 1012.3 |
| 20260504195504 | 47 | 232 | 0.0 | 1.0 | 0.00 | 0.26 | 0.15 | 80 | 1012.3 |
| 20260504195003 | 47 | 221 | 0.0 | 1.0 | 0.00 | 0.26 | 0.15 | 80 | 1012.2 |
| 20260504194503 | 47 | 221 | 0.0 | 2.0 | 0.00 | 0.26 | 0.15 | 79 | 1012.3 |
| 20260504194009 | 47 | 219 | 0.0 | 2.0 | 0.00 | 0.26 | 0.15 | 79 | 1012.3 |
| 20260504193504 | 47 | 257 | 0.0 | 3.0 | 0.00 | 0.26 | 0.15 | 78 | 1012.2 |
| 20260504193004 | 48 | 225 | 0.0 | 3.0 | 0.00 | 0.26 | 0.15 | 78 | 1012.3 |
| 20260504192502 | 48 | 248 | 0.0 | 2.0 | 0.00 | 0.26 | 0.15 | 78 | 1012.3 |
| 20260504192003 | 48 | 297 | 0.0 | 3.0 | 0.00 | 0.26 | 0.15 | 78 | 1012.3 |
| 20260504191506 | 49 | 297 | 0.0 | 3.0 | 0.00 | 0.26 | 0.15 | 77 | 1012.2 |
| 20260504191001 | 49 | 256 | 1.0 | 4.0 | 0.00 | 0.26 | 0.15 | 77 | 1012.2 |
| 20260504190501 | 49 | 284 | 1.0 | 8.0 | 0.00 | 0.26 | 0.15 | 76 | 1012.1 |
| 20260504190111 | 49 | 267 | 0.0 | 8.0 | 0.00 | 0.26 | 0.15 | 76 | 1012.1 |
| 20260504185602 | 49 | 292 | 0.0 | 7.0 | 0.00 | 0.26 | 0.15 | 76 | 1012.1 |
| 20260504185100 | 50 | 262 | 3.0 | 9.0 | 0.00 | 0.26 | 0.15 | 76 | 1012.0 |
| 20260504184615 | 50 | 289 | 2.0 | 8.0 | 0.00 | 0.26 | 0.15 | 75 | 1011.9 |
| 20260504184059 | 50 | 264 | 3.0 | 9.0 | 0.00 | 0.26 | 0.15 | 74 | 1011.9 |
| 20260504183558 | 51 | 184 | 3.0 | 9.0 | 0.00 | 0.26 | 0.15 | 74 | 1011.8 |
| 20260504183104 | 51 | 314 | 3.0 | 7.0 | 0.00 | 0.26 | 0.15 | 73 | 1011.8 |
| 20260504182557 | 51 | 253 | 1.0 | 4.0 | 0.00 | 0.26 | 0.15 | 72 | 1011.8 |
| 20260504182056 | 52 | 287 | 1.0 | 10.0 | 0.00 | 0.26 | 0.15 | 72 | 1011.8 |
| 20260504181557 | 52 | 255 | 5.0 | 10.0 | 0.00 | 0.26 | 0.15 | 71 | 1011.8 |
| 20260504181057 | 52 | 325 | 2.0 | 9.0 | 0.00 | 0.26 | 0.15 | 71 | 1011.7 |
| 20260504180556 | 52 | 302 | 3.0 | 10.0 | 0.00 | 0.26 | 0.15 | 71 | 1011.6 |
| 20260504180056 | 53 | 273 | 3.0 | 13.0 | 0.00 | 0.26 | 0.15 | 70 | 1011.7 |
| 20260504175556 | 53 | 245 | 1.0 | 8.0 | 0.00 | 0.26 | 0.15 | 70 | 1011.6 |
| 20260504175056 | 53 | 275 | 1.0 | 8.0 | 0.00 | 0.26 | 0.15 | 69 | 1011.5 |
| 20260504174559 | 53 | 203 | 0.0 | 12.0 | 0.00 | 0.26 | 0.15 | 68 | 1011.5 |
| 20260504174054 | 54 | 198 | 2.0 | 11.0 | 0.00 | 0.26 | 0.15 | 68 | 1011.5 |
| 20260504173553 | 54 | 350 | 4.0 | 11.0 | 0.00 | 0.26 | 0.15 | 67 | 1011.5 |
| 20260504173057 | 55 | 297 | 2.0 | 11.0 | 0.00 | 0.26 | 0.15 | 66 | 1011.4 |
| 20260504172552 | 56 | 292 | 3.0 | 11.0 | 0.00 | 0.26 | 0.15 | 65 | 1011.3 |
| 20260504172051 | 57 | 302 | 1.0 | 9.0 | 0.00 | 0.26 | 0.15 | 64 | 1011.3 |
| 20260504171550 | 57 | 296 | 3.0 | 9.0 | 0.00 | 0.26 | 0.15 | 63 | 1011.2 |
| 20260504171050 | 58 | 219 | 2.0 | 8.0 | 0.00 | 0.26 | 0.15 | 62 | 1011.2 |
| 20260504170550 | 58 | 310 | 1.0 | 11.0 | 0.00 | 0.26 | 0.15 | 62 | 1011.2 |
| 20260504151045 | 60 | 258 | 4.0 | 16.0 | 0.00 | 0.26 | 0.15 | 55 | 1011.0 |
| 20260504150543 | 61 | 309 | 2.0 | 12.0 | 0.00 | 0.26 | 0.15 | 53 | 1010.9 |
| 20260504141041 | 62 | 234 | 3.0 | 9.0 | 0.00 | 0.26 | 0.15 | 47 | 1010.9 |
| 20260504140540 | 61 | 232 | 2.0 | 11.0 | 0.00 | 0.26 | 0.15 | 49 | 1010.8 |
| 20260504130536 | 63 | 275 | 3.0 | 11.0 | 0.00 | 0.26 | 0.15 | 39 | 1010.6 |
| 20260504110522 | 59 | 286 | 4.0 | 14.0 | 0.00 | 0.26 | 0.15 | 48 | 1010.1 |
| 20260504100508 | 58 | 202 | 4.0 | 8.0 | 0.00 | 0.26 | 0.15 | 53 | 1009.8 |
| 20260504081549 | 53 | 268 | 5.0 | 13.0 | 0.00 | 0.26 | 0.15 | 70 | 1009.0 |
| 20260504081049 | 53 | 234 | 1.0 | 10.0 | 0.00 | 0.26 | 0.15 | 74 | 1009.1 |
| 20260504080548 | 52 | 261 | 4.0 | 13.0 | 0.00 | 0.26 | 0.15 | 71 | 1009.0 |
| 20260504050512 | 48 | 277 | 1.0 | 6.0 | 0.00 | 0.25 | 0.14 | 97 | 1007.4 |
| 20260504050010 | 48 | 267 | 1.0 | 6.0 | 0.00 | 0.25 | 0.14 | 96 | 1007.3 |
| 20260504045509 | 48 | 271 | 1.0 | 3.0 | 0.00 | 0.25 | 0.14 | 97 | 1007.3 |
| 20260504045012 | 48 | 303 | 0.0 | 4.0 | 0.00 | 0.25 | 0.14 | 97 | 1007.2 |
| 20260504044518 | 49 | 295 | 1.0 | 4.0 | 0.00 | 0.25 | 0.14 | 97 | 1007.2 |
| 20260504044011 | 49 | 282 | 1.0 | 5.0 | 0.00 | 0.25 | 0.14 | 96 | 1007.2 |
| 20260504043506 | 49 | 286 | 1.0 | 3.0 | 0.00 | 0.25 | 0.14 | 97 | 1007.1 |
| 20260504043009 | 49 | 323 | 0.0 | 4.0 | 0.00 | 0.25 | 0.14 | 97 | 1007.2 |
| 20260504042504 | 49 | 257 | 1.0 | 4.0 | 0.00 | 0.25 | 0.14 | 97 | 1007.2 |
| 20260504042003 | 50 | 260 | 1.0 | 6.0 | 0.00 | 0.25 | 0.14 | 97 | 1007.2 |
| 20260504041504 | 50 | 278 | 1.0 | 5.0 | 0.00 | 0.25 | 0.14 | 97 | 1007.2 |
| 20260504041101 | 50 | 278 | 1.0 | 5.0 | 0.00 | 0.25 | 0.14 | 97 | 1007.1 |
| 20260504040600 | 50 | 278 | 1.0 | 5.0 | 0.01 | 0.25 | 0.14 | 97 | 1007.1 |
| 20260504040105 | 50 | 252 | 0.0 | 2.0 | 0.01 | 0.25 | 0.14 | 97 | 1007.1 |
| 20260504035559 | 50 | 252 | 0.0 | 2.0 | 0.01 | 0.25 | 0.14 | 97 | 1007.1 |
| 20260504035058 | 50 | 242 | 0.0 | 2.0 | 0.01 | 0.25 | 0.14 | 97 | 1007.1 |
| 20260504034612 | 50 | 242 | 0.0 | 4.0 | 0.01 | 0.25 | 0.14 | 97 | 1007.0 |
| 20260504034058 | 50 | 320 | 1.0 | 4.0 | 0.01 | 0.25 | 0.14 | 97 | 1007.1 |
| 20260504033600 | 50 | 36 | 0.0 | 3.0 | 0.01 | 0.25 | 0.14 | 97 | 1007.0 |
| 20260504033128 | 50 | 360 | 0.0 | 2.0 | 0.01 | 0.25 | 0.14 | 97 | 1007.0 |
| 20260504032558 | 50 | 312 | 0.0 | 2.0 | 0.02 | 0.25 | 0.14 | 97 | 1007.0 |
| 20260504032100 | 50 | 312 | 0.0 | 1.0 | 0.02 | 0.25 | 0.14 | 97 | 1006.9 |
| 20260504031603 | 50 | 312 | 0.0 | 1.0 | 0.02 | 0.25 | 0.14 | 97 | 1006.9 |
| 20260504031058 | 50 | 312 | 0.0 | 2.0 | 0.02 | 0.25 | 0.14 | 97 | 1006.9 |
| 20260504030557 | 50 | 312 | 0.0 | 2.0 | 0.01 | 0.24 | 0.13 | 97 | 1006.9 |
| 20260504030101 | 50 | 312 | 0.0 | 2.0 | 0.02 | 0.24 | 0.13 | 97 | 1006.8 |
| 20260504025557 | 50 | 312 | 0.0 | 1.0 | 0.02 | 0.24 | 0.13 | 97 | 1006.8 |
| 20260504025057 | 50 | 312 | 0.0 | 1.0 | 0.02 | 0.24 | 0.13 | 97 | 1006.8 |
| 20260504024557 | 50 | 312 | 0.0 | 2.0 | 0.02 | 0.24 | 0.13 | 97 | 1006.8 |
| 20260504024102 | 50 | 312 | 0.0 | 2.0 | 0.03 | 0.24 | 0.13 | 97 | 1006.7 |
| 20260504023557 | 50 | 312 | 0.0 | 1.0 | 0.03 | 0.24 | 0.13 | 97 | 1006.7 |
| 20260504023103 | 50 | 312 | 0.0 | 1.0 | 0.04 | 0.24 | 0.13 | 96 | 1006.7 |
| 20260504022558 | 50 | 312 | 0.0 | 0.0 | 0.03 | 0.24 | 0.13 | 96 | 1006.7 |
| 20260504022055 | 50 | 312 | 0.0 | 1.0 | 0.05 | 0.24 | 0.13 | 96 | 1006.7 |
| 20260504021557 | 50 | 312 | 0.0 | 1.0 | 0.06 | 0.24 | 0.13 | 96 | 1006.7 |
| 20260504021056 | 50 | 312 | 0.0 | 0.0 | 0.06 | 0.24 | 0.13 | 96 | 1006.6 |
| 20260504020556 | 50 | 312 | 0.0 | 2.0 | 0.07 | 0.24 | 0.13 | 96 | 1006.6 |
| 20260504020059 | 50 | 312 | 0.0 | 2.0 | 0.06 | 0.23 | 0.12 | 96 | 1006.7 |
| 20260504015554 | 50 | 312 | 0.0 | 1.0 | 0.07 | 0.23 | 0.12 | 96 | 1006.7 |
| 20260504015057 | 50 | 312 | 0.0 | 2.0 | 0.06 | 0.22 | 0.11 | 96 | 1006.7 |
| 20260504014554 | 51 | 312 | 0.0 | 2.0 | 0.06 | 0.22 | 0.11 | 96 | 1006.7 |
| 20260504014053 | 51 | 131 | 0.0 | 2.0 | 0.06 | 0.21 | 0.10 | 96 | 1006.7 |
| 20260504013552 | 51 | 5 | 0.0 | 2.0 | 0.06 | 0.21 | 0.10 | 96 | 1006.6 |
| 20260504013106 | 51 | 207 | 0.0 | 3.0 | 0.05 | 0.20 | 0.09 | 96 | 1006.7 |
| 20260504012552 | 51 | 205 | 0.0 | 3.0 | 0.05 | 0.20 | 0.09 | 96 | 1006.7 |
| 20260504012052 | 51 | 115 | 0.0 | 3.0 | 0.03 | 0.19 | 0.08 | 97 | 1006.6 |
| 20260504011551 | 51 | 181 | 0.0 | 1.0 | 0.03 | 0.18 | 0.07 | 97 | 1006.7 |